TimeCST,TemperatureF,Dew PointF,Humidity,Sea Level PressureIn,VisibilityMPH,Wind Direction,Wind SpeedMPH,Gust SpeedMPH,PrecipitationIn,Events,Conditions,WindDirDegrees,DateUTC
12:15 AM,26.6,23.2,87,30.08,10.0,West,15.0,21.9,N/A,,Overcast,260,2013-12-26 06:15:00
12:35 AM,25.9,21.9,85,30.08,10.0,West,16.1,21.9,N/A,,Overcast,270,2013-12-26 06:35:00
12:55 AM,25.7,21.9,86,30.08,7.0,West,12.7,19.6,N/A,,Overcast,260,2013-12-26 06:55:00
1:15 AM,25.5,22.1,87,30.09,7.0,West,10.4,-,N/A,Snow,Light Snow,260,2013-12-26 07:15:00
1:35 AM,25.5,22.1,87,30.10,7.0,West,12.7,17.3,N/A,,Overcast,270,2013-12-26 07:35:00
1:55 AM,25.3,21.2,84,30.10,7.0,West,12.7,21.9,N/A,,Overcast,260,2013-12-26 07:55:00
2:15 AM,25.2,20.1,81,30.11,10.0,West,15.0,20.7,N/A,,Overcast,270,2013-12-26 08:15:00
2:35 AM,24.6,19.4,81,30.11,10.0,West,11.5,-,N/A,,Mostly Cloudy,270,2013-12-26 08:35:00
2:55 AM,24.1,18.9,80,30.12,10.0,West,16.1,23.0,N/A,,Mostly Cloudy,270,2013-12-26 08:55:00
3:15 AM,23.9,19.0,82,30.12,10.0,West,11.5,18.4,N/A,,Overcast,270,2013-12-26 09:15:00
3:35 AM,23.5,17.8,79,30.13,10.0,West,18.4,23.0,N/A,,Overcast,270,2013-12-26 09:35:00
3:55 AM,22.5,16.7,79,30.14,10.0,West,16.1,21.9,N/A,,Overcast,270,2013-12-26 09:55:00
4:15 AM,21.2,14.9,77,30.14,10.0,West,15.0,18.4,N/A,,Overcast,270,2013-12-26 10:15:00
4:35 AM,20.3,14.5,78,30.15,10.0,West,10.4,20.7,N/A,,Overcast,270,2013-12-26 10:35:00
4:55 AM,19.6,14.0,79,30.16,10.0,West,12.7,-,N/A,,Overcast,270,2013-12-26 10:55:00
5:15 AM,18.5,12.9,79,30.17,10.0,West,13.8,-,N/A,,Overcast,270,2013-12-26 11:15:00
5:35 AM,18.1,12.9,80,30.17,10.0,West,9.2,-,N/A,,Overcast,270,2013-12-26 11:35:00
5:55 AM,17.2,12.6,82,30.18,10.0,WSW,6.9,-,N/A,,Overcast,250,2013-12-26 11:55:00
6:15 AM,17.2,12.7,83,30.19,10.0,SW,5.8,-,N/A,,Overcast,230,2013-12-26 12:15:00
6:35 AM,16.7,12.7,84,30.19,10.0,WSW,8.1,-,N/A,,Overcast,240,2013-12-26 12:35:00
6:55 AM,16.7,12.9,85,30.20,10.0,West,6.9,-,N/A,,Overcast,260,2013-12-26 12:55:00
7:15 AM,17.1,12.9,84,30.21,10.0,West,9.2,-,N/A,,Overcast,260,2013-12-26 13:15:00
7:35 AM,16.2,11.8,83,30.23,10.0,WSW,6.9,-,N/A,,Mostly Cloudy,250,2013-12-26 13:35:00
7:55 AM,15.4,10.9,82,30.22,10.0,WSW,8.1,-,N/A,,Scattered Clouds,250,2013-12-26 13:55:00
8:15 AM,15.4,10.4,80,30.24,10.0,WSW,6.9,-,N/A,,Clear,250,2013-12-26 14:15:00
8:35 AM,15.8,9.5,76,30.25,10.0,WSW,8.1,-,N/A,,Scattered Clouds,240,2013-12-26 14:35:00
8:55 AM,16.3,9.5,74,30.26,10.0,West,6.9,-,N/A,,Scattered Clouds,260,2013-12-26 14:55:00
9:15 AM,17.1,10.0,74,30.27,10.0,WSW,6.9,-,N/A,,Clear,250,2013-12-26 15:15:00
9:35 AM,17.6,10.2,73,30.28,10.0,WSW,6.9,-,N/A,,Clear,250,2013-12-26 15:35:00
9:55 AM,18.3,10.4,71,30.29,10.0,WSW,8.1,-,N/A,,Clear,240,2013-12-26 15:55:00
10:15 AM,18.7,10.9,72,30.29,10.0,SW,10.4,-,N/A,,Clear,230,2013-12-26 16:15:00
10:35 AM,19.8,11.3,70,30.30,10.0,WSW,9.2,-,N/A,,Mostly Cloudy,240,2013-12-26 16:35:00
10:55 AM,20.8,12.2,69,30.29,10.0,SW,9.2,-,N/A,,Overcast,230,2013-12-26 16:55:00
11:15 AM,21.4,12.2,68,30.29,10.0,WSW,11.5,-,N/A,,Overcast,240,2013-12-26 17:15:00
11:35 AM,22.1,12.7,67,30.29,10.0,WSW,10.4,-,N/A,,Overcast,250,2013-12-26 17:35:00
11:55 AM,22.6,14.0,69,30.28,10.0,SW,11.5,-,N/A,,Overcast,230,2013-12-26 17:55:00
12:15 PM,23.0,14.9,71,30.28,10.0,WSW,9.2,-,N/A,,Overcast,240,2013-12-26 18:15:00
12:35 PM,23.2,15.4,72,30.28,10.0,SW,9.2,-,N/A,Snow,Light Snow,230,2013-12-26 18:35:00
12:55 PM,23.7,16.3,73,30.27,10.0,SW,9.2,-,N/A,Snow,Light Snow,230,2013-12-26 18:55:00
1:15 PM,23.9,17.2,76,30.27,7.0,SW,6.9,-,N/A,Snow,Light Snow,230,2013-12-26 19:15:00
1:35 PM,24.4,17.8,76,30.25,10.0,South,4.6,-,N/A,Snow,Light Snow,190,2013-12-26 19:35:00
1:55 PM,25.2,18.5,76,30.25,10.0,SSW,9.2,-,N/A,,Mostly Cloudy,200,2013-12-26 19:55:00
2:15 PM,25.7,19.0,76,30.24,10.0,SSW,8.1,-,N/A,,Mostly Cloudy,200,2013-12-26 20:15:00
2:35 PM,26.6,19.4,74,30.24,10.0,South,6.9,-,N/A,,Overcast,190,2013-12-26 20:35:00
2:55 PM,27.1,19.4,73,30.24,10.0,South,9.2,-,N/A,,Mostly Cloudy,180,2013-12-26 20:55:00
3:15 PM,26.4,19.2,74,30.24,10.0,South,4.6,-,N/A,,Mostly Cloudy,170,2013-12-26 21:15:00
3:35 PM,26.6,19.8,75,30.23,10.0,SSE,4.6,-,N/A,,Overcast,160,2013-12-26 21:35:00
3:55 PM,27.0,20.5,77,30.23,10.0,South,4.6,-,N/A,,Overcast,170,2013-12-26 21:55:00
4:15 PM,27.5,21.7,79,30.22,10.0,South,6.9,-,N/A,,Mostly Cloudy,190,2013-12-26 22:15:00
4:35 PM,28.9,23.0,78,30.23,10.0,South,6.9,-,N/A,,Mostly Cloudy,190,2013-12-26 22:35:00
4:55 PM,28.9,23.4,80,30.23,10.0,South,6.9,-,N/A,,Mostly Cloudy,190,2013-12-26 22:55:00
5:15 PM,29.1,23.7,80,30.22,10.0,South,6.9,-,N/A,,Overcast,190,2013-12-26 23:15:00
5:35 PM,29.7,23.9,79,30.22,10.0,South,9.2,-,N/A,,Overcast,190,2013-12-26 23:35:00
5:55 PM,30.0,23.7,77,30.21,10.0,South,9.2,-,N/A,,Mostly Cloudy,190,2013-12-26 23:55:00
6:15 PM,30.2,23.7,77,30.21,10.0,South,8.1,16.1,N/A,,Mostly Cloudy,190,2013-12-27 00:15:00
6:35 PM,30.6,23.9,76,30.21,10.0,South,5.8,-,N/A,,Overcast,190,2013-12-27 00:35:00
6:55 PM,30.6,23.9,76,30.21,10.0,SSW,9.2,-,N/A,,Overcast,200,2013-12-27 00:55:00
7:15 PM,30.9,23.9,75,30.21,10.0,SSW,5.8,-,N/A,,Overcast,200,2013-12-27 01:15:00
7:35 PM,31.1,23.9,75,30.21,10.0,SSW,9.2,-,N/A,,Overcast,200,2013-12-27 01:35:00
7:55 PM,31.1,23.9,75,30.21,10.0,SSW,6.9,-,N/A,,Overcast,200,2013-12-27 01:55:00
8:15 PM,31.1,23.9,75,30.22,10.0,SSW,8.1,-,N/A,,Overcast,210,2013-12-27 02:15:00
8:35 PM,31.5,24.3,75,30.22,10.0,SSW,8.1,-,N/A,,Overcast,210,2013-12-27 02:35:00
8:55 PM,31.5,24.4,75,30.22,10.0,SSW,8.1,-,N/A,,Overcast,210,2013-12-27 02:55:00
9:15 PM,31.5,24.6,76,30.22,10.0,SSW,10.4,-,N/A,,Overcast,210,2013-12-27 03:15:00
9:35 PM,31.8,24.8,75,30.22,10.0,SSW,10.4,-,N/A,,Overcast,210,2013-12-27 03:35:00
9:55 PM,32.0,25.0,75,30.22,10.0,SSW,10.4,17.3,N/A,,Overcast,210,2013-12-27 03:55:00
10:15 PM,32.0,25.3,76,30.22,10.0,SW,12.7,-,N/A,,Overcast,220,2013-12-27 04:15:00
10:35 PM,32.0,25.5,77,30.22,10.0,SW,11.5,-,N/A,,Overcast,220,2013-12-27 04:35:00
10:55 PM,32.0,25.7,78,30.22,10.0,SW,10.4,16.1,N/A,,Overcast,220,2013-12-27 04:55:00
11:15 PM,32.4,25.7,76,30.21,10.0,SW,9.2,-,N/A,,Overcast,220,2013-12-27 05:15:00
11:35 PM,32.4,26.1,78,30.21,10.0,SW,9.2,-,N/A,,Overcast,220,2013-12-27 05:35:00
11:55 PM,32.2,26.2,79,30.21,10.0,SW,8.1,-,N/A,,Overcast,220,2013-12-27 05:55:00